RYR7VV EICK-LERS

Flight info

Callsign RYR7VV
Flight time 2h 4m
Altitude 37000
Route ORTOM1S ORTOM DCT TUVEN DCT TULTA/N0431F370 DCT TURDO DCT INCEF DCT NENEM P152 PPN DCT TURPU DCT GOSVI DCT RONKO/N0430F380 M601 POSSY
Aircraft B738/M-SDE2E3FGHIRWXY/LB1

Departure

Time 2026-04-25 10:40
Airport Cork International Airport (EICK)

Arrival

Time 2026-04-25 12:44
Airport Reus Airport (LERS)
Time Latitude Longitude Altitude Speed Heading
2026-04-25 09:37 51.84796 -8.49039 503 ft 0 kts 70°
2026-04-25 10:30 51.84790 -8.49065 503 ft 4 kts 70°
2026-04-25 10:30 51.84780 -8.49105 503 ft 4 kts 69°
2026-04-25 10:31 51.84772 -8.49146 503 ft 4 kts 69°
2026-04-25 10:31 51.84759 -8.49182 503 ft 4 kts 36°
2026-04-25 10:31 51.84738 -8.49193 503 ft 2 kts 351°
2026-04-25 10:31 51.84737 -8.49193 503 ft 1 kts 351°
2026-04-25 10:36 51.84743 -8.49195 503 ft 3 kts 351°
2026-04-25 10:36 51.84775 -8.49206 503 ft 7 kts 347°
2026-04-25 10:36 51.84840 -8.49228 503 ft 12 kts 346°
2026-04-25 10:36 51.84920 -8.49268 503 ft 12 kts 345°
2026-04-25 10:37 51.84999 -8.49306 503 ft 12 kts 340°
2026-04-25 10:37 51.85072 -8.49350 503 ft 9 kts 340°
2026-04-25 10:37 51.85128 -8.49383 503 ft 8 kts 339°
2026-04-25 10:37 51.85143 -8.49444 503 ft 6 kts 251°
2026-04-25 10:38 51.85116 -8.49498 503 ft 6 kts 218°
2026-04-25 10:38 51.85076 -8.49525 503 ft 6 kts 201°
2026-04-25 10:38 51.85028 -8.49563 503 ft 9 kts 207°
2026-04-25 10:38 51.84971 -8.49600 503 ft 9 kts 183°
2026-04-25 10:39 51.84909 -8.49567 503 ft 12 kts 163°
2026-04-25 10:39 51.84658 -8.49423 503 ft 75 kts 159°
2026-04-25 10:39 51.83936 -8.48997 504 ft 143 kts 160°
2026-04-25 10:39 51.82881 -8.48365 891 ft 166 kts 160°
2026-04-25 10:40 51.81822 -8.47803 1958 ft 156 kts 163°
2026-04-25 10:40 51.80743 -8.47285 2677 ft 169 kts 164°
2026-04-25 10:40 51.79504 -8.46848 3188 ft 194 kts 170°
2026-04-25 10:40 51.78120 -8.46456 3701 ft 210 kts 171°
2026-04-25 10:41 51.76662 -8.46036 4393 ft 215 kts 171°
2026-04-25 10:41 51.75135 -8.45607 4983 ft 234 kts 170°
2026-04-25 10:41 51.73446 -8.45077 5454 ft 255 kts 169°
2026-04-25 10:41 51.71695 -8.44492 6381 ft 258 kts 169°
2026-04-25 10:42 51.69937 -8.43903 7321 ft 259 kts 169°
2026-04-25 10:42 51.68157 -8.43309 8191 ft 263 kts 169°
2026-04-25 10:42 51.66352 -8.42710 9072 ft 267 kts 170°
2026-04-25 10:42 51.64518 -8.42104 9800 ft 271 kts 170°
2026-04-25 10:43 51.62662 -8.41493 10478 ft 277 kts 170°
2026-04-25 10:43 51.60685 -8.40848 10698 ft 304 kts 170°
2026-04-25 10:43 51.58546 -8.40151 11127 ft 320 kts 170°
2026-04-25 10:43 51.56343 -8.39430 11847 ft 326 kts 170°
2026-04-25 10:44 51.54134 -8.38708 12640 ft 330 kts 171°
2026-04-25 10:44 51.51839 -8.37959 13443 ft 334 kts 171°
2026-04-25 10:44 51.49575 -8.37221 14161 ft 340 kts 171°
2026-04-25 10:44 51.47239 -8.36461 14837 ft 344 kts 171°
2026-04-25 10:45 51.44877 -8.35694 15520 ft 349 kts 171°
2026-04-25 10:45 51.42481 -8.34917 16197 ft 354 kts 171°
2026-04-25 10:45 51.40049 -8.34129 16873 ft 359 kts 171°
2026-04-25 10:45 51.37589 -8.33332 17531 ft 363 kts 171°
2026-04-25 10:46 51.35093 -8.32525 18190 ft 368 kts 171°
2026-04-25 10:46 51.32568 -8.31708 18795 ft 373 kts 172°
2026-04-25 10:46 51.30011 -8.30883 19389 ft 377 kts 172°
2026-04-25 10:46 51.27432 -8.30053 19975 ft 380 kts 172°
2026-04-25 10:47 51.24814 -8.29362 20534 ft 383 kts 176°
2026-04-25 10:47 51.22161 -8.28880 21103 ft 386 kts 178°
2026-04-25 10:47 51.19480 -8.28447 21666 ft 389 kts 178°
2026-04-25 10:47 51.16773 -8.28006 22223 ft 393 kts 178°
2026-04-25 10:48 51.14040 -8.27540 22775 ft 397 kts 178°
2026-04-25 10:48 51.11279 -8.27052 23312 ft 401 kts 178°
2026-04-25 10:48 51.08497 -8.26549 23826 ft 404 kts 178°
2026-04-25 10:48 51.05691 -8.26038 24273 ft 407 kts 178°
2026-04-25 10:49 51.02868 -8.25523 24740 ft 410 kts 178°
2026-04-25 10:49 51.00987 -8.25181 25029 ft 411 kts 178°
2026-04-25 10:49 50.97166 -8.24561 25625 ft 414 kts 180°
2026-04-25 10:49 50.94287 -8.24235 26072 ft 415 kts 180°
2026-04-25 10:50 50.91395 -8.23954 26509 ft 417 kts 181°
2026-04-25 10:50 50.88490 -8.23681 26934 ft 420 kts 181°
2026-04-25 10:50 50.85565 -8.23400 27350 ft 422 kts 181°
2026-04-25 10:50 50.82627 -8.23106 27757 ft 425 kts 180°
2026-04-25 10:51 50.79671 -8.22802 28157 ft 427 kts 180°
2026-04-25 10:51 50.76697 -8.22489 28548 ft 429 kts 180°
2026-04-25 10:51 50.73709 -8.22171 28931 ft 431 kts 180°
2026-04-25 10:51 50.70707 -8.21850 29304 ft 434 kts 180°
2026-04-25 10:52 50.67684 -8.21526 29671 ft 436 kts 180°
2026-04-25 10:52 50.64657 -8.21202 30025 ft 438 kts 180°
2026-04-25 10:52 50.61602 -8.20875 30348 ft 440 kts 180°
2026-04-25 10:52 50.58544 -8.20548 30625 ft 442 kts 180°
2026-04-25 10:53 50.55470 -8.20219 30965 ft 442 kts 180°
2026-04-25 10:53 50.52410 -8.19892 31400 ft 440 kts 180°
2026-04-25 10:53 50.49405 -8.19570 31846 ft 437 kts 180°
2026-04-25 10:53 50.46374 -8.19247 32246 ft 436 kts 180°
2026-04-25 10:54 50.43346 -8.18926 32609 ft 436 kts 180°
2026-04-25 10:54 50.41304 -8.18710 32846 ft 435 kts 181°
2026-04-25 10:54 50.37307 -8.18287 33370 ft 434 kts 181°
2026-04-25 10:54 50.34303 -8.17970 33730 ft 432 kts 181°
2026-04-25 10:55 50.31301 -8.17654 34052 ft 433 kts 181°
2026-04-25 10:55 50.28294 -8.17338 34354 ft 432 kts 181°
2026-04-25 10:55 50.25300 -8.17023 34654 ft 431 kts 181°
2026-04-25 10:55 50.22303 -8.16708 34939 ft 431 kts 181°
2026-04-25 10:56 50.19308 -8.16394 35198 ft 431 kts 180°
2026-04-25 10:56 50.16319 -8.16081 35468 ft 431 kts 180°
2026-04-25 10:56 50.13326 -8.15768 35726 ft 430 kts 180°
2026-04-25 10:56 50.10335 -8.15455 35970 ft 431 kts 181°
2026-04-25 10:57 50.07345 -8.15143 36188 ft 431 kts 180°
2026-04-25 10:57 50.04348 -8.14831 36454 ft 431 kts 180°
2026-04-25 10:57 50.01360 -8.14520 36737 ft 430 kts 180°
2026-04-25 10:57 49.98381 -8.14210 36984 ft 430 kts 180°
2026-04-25 10:58 49.95393 -8.13899 37194 ft 430 kts 180°
2026-04-25 10:58 49.89376 -8.13278 37205 ft 435 kts 180°
2026-04-25 10:59 49.83345 -8.12653 37196 ft 432 kts 180°
2026-04-25 10:59 49.77383 -8.12035 37207 ft 428 kts 180°
2026-04-25 11:00 49.71493 -8.11429 37205 ft 426 kts 180°
2026-04-25 11:00 49.65578 -8.10822 37195 ft 425 kts 181°
2026-04-25 11:01 49.59674 -8.10219 37211 ft 426 kts 181°
2026-04-25 11:01 49.53752 -8.09615 37215 ft 427 kts 181°
2026-04-25 11:02 49.47808 -8.09010 37210 ft 429 kts 181°
2026-04-25 11:02 49.41844 -8.08403 37206 ft 430 kts 181°
2026-04-25 11:03 49.35861 -8.07797 37210 ft 431 kts 181°
2026-04-25 11:03 49.29863 -8.07190 37211 ft 433 kts 181°
2026-04-25 11:04 49.23844 -8.06582 37191 ft 434 kts 181°
2026-04-25 11:04 49.17821 -8.05976 37206 ft 434 kts 181°
2026-04-25 11:05 49.11789 -8.05370 37213 ft 435 kts 181°
2026-04-25 11:05 49.05748 -8.04764 37216 ft 435 kts 181°
2026-04-25 11:06 48.99700 -8.04160 37198 ft 435 kts 181°
2026-04-25 11:06 48.94681 -8.03659 37215 ft 435 kts 181°
2026-04-25 11:07 48.88636 -8.03058 37207 ft 435 kts 181°
2026-04-25 11:07 48.82599 -8.02458 37211 ft 435 kts 181°
2026-04-25 11:08 48.76560 -8.01860 37210 ft 434 kts 180°
2026-04-25 11:08 48.70538 -8.01265 37212 ft 433 kts 180°
2026-04-25 11:09 48.64521 -8.00672 37211 ft 433 kts 180°
2026-04-25 11:09 48.58532 -7.99632 37203 ft 438 kts 168°
2026-04-25 11:10 48.52954 -7.95789 37219 ft 446 kts 151°
2026-04-25 11:10 48.47722 -7.90772 37218 ft 446 kts 151°
2026-04-25 11:11 48.42468 -7.85803 37207 ft 446 kts 152°
2026-04-25 11:11 48.37233 -7.80914 37202 ft 446 kts 152°
2026-04-25 11:12 48.31959 -7.76020 37210 ft 446 kts 152°
2026-04-25 11:12 48.26676 -7.71132 37211 ft 446 kts 152°
2026-04-25 11:13 48.21385 -7.66247 37218 ft 447 kts 152°
2026-04-25 11:13 48.16083 -7.61363 37206 ft 448 kts 152°
2026-04-25 11:14 48.10770 -7.56480 37214 ft 448 kts 152°
2026-04-25 11:14 48.05452 -7.51605 37219 ft 449 kts 152°
2026-04-25 11:15 48.00120 -7.46729 37216 ft 450 kts 152°
2026-04-25 11:15 47.94776 -7.41853 37211 ft 450 kts 152°
2026-04-25 11:16 47.86757 -7.34560 37214 ft 450 kts 152°
2026-04-25 11:16 47.81407 -7.29709 37215 ft 450 kts 152°
2026-04-25 11:17 47.76054 -7.24867 37203 ft 450 kts 152°
2026-04-25 11:17 47.70702 -7.20038 37214 ft 450 kts 152°
2026-04-25 11:18 47.65356 -7.15226 37213 ft 450 kts 152°
2026-04-25 11:18 47.60002 -7.10419 37209 ft 449 kts 151°
2026-04-25 11:19 47.54653 -7.05626 37215 ft 449 kts 151°
2026-04-25 11:19 47.49304 -7.00843 37212 ft 449 kts 151°
2026-04-25 11:20 47.43964 -6.96040 37213 ft 450 kts 149°
2026-04-25 11:20 47.38859 -6.90666 37219 ft 451 kts 145°
2026-04-25 11:21 47.33850 -6.85084 37211 ft 451 kts 145°
2026-04-25 11:21 47.28819 -6.79542 37211 ft 451 kts 145°
2026-04-25 11:22 47.24616 -6.74980 37211 ft 452 kts 146°
2026-04-25 11:22 47.18723 -6.68635 37202 ft 452 kts 146°
2026-04-25 11:23 47.13643 -6.63186 37214 ft 452 kts 146°
2026-04-25 11:23 47.08528 -6.57710 37211 ft 452 kts 145°
2026-04-25 11:24 47.03478 -6.52316 37209 ft 452 kts 145°
2026-04-25 11:24 46.98389 -6.46893 37201 ft 452 kts 145°
2026-04-25 11:25 46.93304 -6.41487 37206 ft 451 kts 145°
2026-04-25 11:25 46.88225 -6.36100 37207 ft 451 kts 146°
2026-04-25 11:26 46.83143 -6.30724 37205 ft 451 kts 146°
2026-04-25 11:26 46.78062 -6.25361 37198 ft 450 kts 145°
2026-04-25 11:27 46.72985 -6.20014 37209 ft 450 kts 145°
2026-04-25 11:27 46.68733 -6.15546 37203 ft 450 kts 145°
2026-04-25 11:28 46.62830 -6.09359 37201 ft 450 kts 146°
2026-04-25 11:28 46.57751 -6.04049 37214 ft 450 kts 146°
2026-04-25 11:29 46.52671 -5.98749 37204 ft 450 kts 146°
2026-04-25 11:29 46.47589 -5.93461 37201 ft 449 kts 146°
2026-04-25 11:30 46.42504 -5.88182 37203 ft 449 kts 146°
2026-04-25 11:30 46.37421 -5.82917 37199 ft 449 kts 146°
2026-04-25 11:31 46.32342 -5.77668 37197 ft 449 kts 146°
2026-04-25 11:31 46.27258 -5.72427 37199 ft 449 kts 146°
2026-04-25 11:32 46.22172 -5.67195 37187 ft 449 kts 146°
2026-04-25 11:32 46.17089 -5.61979 37194 ft 448 kts 146°
2026-04-25 11:33 46.12002 -5.56770 37196 ft 448 kts 146°
2026-04-25 11:33 46.06913 -5.51573 37198 ft 448 kts 146°
2026-04-25 11:34 46.01818 -5.46380 37186 ft 448 kts 146°
2026-04-25 11:34 45.96760 -5.41237 37193 ft 448 kts 146°
2026-04-25 11:35 45.91633 -5.36036 37189 ft 448 kts 146°
2026-04-25 11:35 45.86573 -5.30914 37192 ft 448 kts 146°
2026-04-25 11:36 45.81475 -5.25766 37193 ft 448 kts 146°
2026-04-25 11:36 45.76380 -5.20632 37188 ft 448 kts 146°
2026-04-25 11:37 45.71279 -5.15504 37190 ft 448 kts 146°
2026-04-25 11:37 45.66175 -5.10384 37189 ft 448 kts 146°
2026-04-25 11:38 45.61070 -5.05275 37181 ft 448 kts 146°
2026-04-25 11:38 45.55966 -5.00176 37187 ft 448 kts 146°
2026-04-25 11:39 45.50893 -4.95034 37171 ft 448 kts 142°
2026-04-25 11:39 45.46220 -4.89166 37179 ft 448 kts 138°
2026-04-25 11:40 45.41632 -4.83166 37186 ft 448 kts 138°
2026-04-25 11:40 45.37016 -4.77212 37179 ft 447 kts 139°
2026-04-25 11:41 45.32381 -4.71313 37183 ft 447 kts 139°
2026-04-25 11:41 45.27735 -4.65438 37173 ft 447 kts 139°
2026-04-25 11:42 45.23086 -4.59574 37186 ft 447 kts 139°
2026-04-25 11:42 45.18436 -4.53722 37180 ft 447 kts 139°
2026-04-25 11:43 45.13822 -4.47925 37184 ft 447 kts 139°
2026-04-25 11:43 45.09170 -4.42095 37172 ft 446 kts 139°
2026-04-25 11:44 45.04522 -4.36282 37184 ft 446 kts 139°
2026-04-25 11:44 44.99870 -4.30478 37181 ft 446 kts 139°
2026-04-25 11:45 44.95217 -4.24685 37184 ft 446 kts 139°
2026-04-25 11:45 44.90564 -4.18905 37179 ft 446 kts 140°
2026-04-25 11:46 44.85908 -4.13135 37183 ft 445 kts 140°
2026-04-25 11:46 44.81254 -4.07380 37180 ft 445 kts 140°
2026-04-25 11:47 44.76595 -4.01631 37183 ft 445 kts 140°
2026-04-25 11:47 44.71930 -3.95889 37184 ft 445 kts 140°
2026-04-25 11:48 44.67265 -3.90159 37181 ft 445 kts 140°
2026-04-25 11:48 44.62598 -3.84439 37183 ft 445 kts 140°
2026-04-25 11:49 44.57927 -3.78726 37188 ft 445 kts 140°
2026-04-25 11:49 44.53256 -3.73027 37175 ft 445 kts 140°
2026-04-25 11:50 44.48584 -3.67339 37182 ft 445 kts 140°
2026-04-25 11:50 44.43913 -3.61664 37181 ft 444 kts 140°
2026-04-25 11:51 44.39242 -3.56002 37182 ft 444 kts 140°
2026-04-25 11:51 44.34603 -3.50391 37176 ft 444 kts 140°
2026-04-25 11:52 44.29936 -3.44759 37182 ft 443 kts 140°
2026-04-25 11:52 44.25272 -3.39142 37188 ft 443 kts 141°
2026-04-25 11:53 44.20609 -3.33537 37179 ft 442 kts 141°
2026-04-25 11:53 44.15948 -3.27949 37183 ft 442 kts 141°
2026-04-25 11:54 44.11296 -3.22380 37180 ft 441 kts 141°
2026-04-25 11:55 44.04319 -3.14063 37184 ft 440 kts 142°
2026-04-25 11:55 44.00393 -3.09596 37184 ft 439 kts 143°
2026-04-25 11:56 43.95638 -3.04291 37190 ft 438 kts 143°
2026-04-25 11:56 43.90902 -2.98991 37182 ft 437 kts 143°
2026-04-25 11:57 43.86176 -2.93690 37188 ft 436 kts 143°
2026-04-25 11:57 43.81465 -2.88412 37187 ft 435 kts 143°
2026-04-25 11:58 43.76756 -2.83146 37189 ft 434 kts 143°
2026-04-25 11:58 43.72059 -2.77906 37194 ft 434 kts 143°
2026-04-25 11:59 43.67369 -2.72674 37193 ft 433 kts 143°
2026-04-25 11:59 43.62675 -2.67456 37196 ft 433 kts 143°
2026-04-25 12:00 43.55638 -2.59662 37189 ft 432 kts 143°
2026-04-25 12:01 43.48639 -2.51928 37195 ft 432 kts 143°
2026-04-25 12:01 43.43951 -2.46760 37196 ft 431 kts 143°
2026-04-25 12:02 43.36922 -2.39032 37195 ft 431 kts 143°
2026-04-25 12:02 43.32236 -2.33893 37188 ft 431 kts 143°
2026-04-25 12:03 43.27547 -2.28761 37195 ft 431 kts 143°
2026-04-25 12:03 43.22854 -2.23635 37188 ft 431 kts 143°
2026-04-25 12:04 43.18161 -2.18518 37193 ft 432 kts 143°
2026-04-25 12:04 43.13455 -2.13396 37186 ft 432 kts 143°
2026-04-25 12:05 43.08742 -2.08280 37185 ft 432 kts 143°
2026-04-25 12:05 43.04024 -2.03173 37176 ft 433 kts 143°
2026-04-25 12:06 42.99309 -1.98079 37156 ft 432 kts 143°
2026-04-25 12:06 42.94598 -1.92995 37169 ft 431 kts 143°
2026-04-25 12:07 42.89884 -1.87921 37178 ft 432 kts 143°
2026-04-25 12:07 42.85169 -1.82851 37172 ft 432 kts 143°
2026-04-25 12:08 42.80454 -1.77785 37167 ft 431 kts 143°
2026-04-25 12:08 42.75753 -1.72719 37155 ft 432 kts 141°
2026-04-25 12:09 42.73650 -1.69792 37148 ft 434 kts 130°
2026-04-25 12:09 42.71951 -1.66401 37165 ft 436 kts 120°
2026-04-25 12:09 42.69407 -1.58905 37147 ft 437 kts 116°
2026-04-25 12:10 42.66821 -1.51498 37134 ft 436 kts 117°
2026-04-25 12:10 42.64172 -1.44024 37158 ft 436 kts 117°
2026-04-25 12:11 42.61561 -1.36651 37134 ft 437 kts 117°
2026-04-25 12:11 42.58923 -1.29218 37132 ft 437 kts 117°
2026-04-25 12:12 42.56708 -1.22987 37125 ft 437 kts 117°
2026-04-25 12:12 42.53631 -1.14353 37115 ft 438 kts 117°
2026-04-25 12:13 42.50978 -1.06927 37113 ft 438 kts 117°
2026-04-25 12:13 42.48319 -0.99507 37110 ft 438 kts 117°
2026-04-25 12:14 42.45661 -0.92102 37115 ft 437 kts 117°
2026-04-25 12:14 42.43055 -0.84856 37093 ft 414 kts 118°
2026-04-25 12:15 42.41808 -0.81398 36957 ft 405 kts 118°
2026-04-25 12:15 42.40561 -0.77954 36093 ft 414 kts 118°
2026-04-25 12:15 42.39275 -0.74409 35324 ft 421 kts 117°
2026-04-25 12:15 42.37986 -0.70854 34871 ft 420 kts 117°
2026-04-25 12:16 42.36707 -0.67324 34532 ft 415 kts 117°
2026-04-25 12:16 42.35442 -0.63838 34195 ft 411 kts 117°
2026-04-25 12:16 42.34185 -0.60378 33768 ft 409 kts 117°
2026-04-25 12:16 42.32934 -0.56944 33324 ft 407 kts 117°
2026-04-25 12:17 42.31686 -0.53522 32871 ft 405 kts 117°
2026-04-25 12:17 42.30456 -0.50154 32399 ft 404 kts 117°
2026-04-25 12:17 42.29217 -0.46763 32019 ft 401 kts 117°
2026-04-25 12:17 42.27988 -0.43401 31630 ft 398 kts 118°
2026-04-25 12:18 42.26763 -0.40055 31260 ft 396 kts 118°
2026-04-25 12:18 42.25547 -0.36738 30882 ft 393 kts 118°
2026-04-25 12:18 42.24340 -0.33446 30532 ft 390 kts 118°
2026-04-25 12:18 42.23140 -0.30177 30174 ft 388 kts 118°
2026-04-25 12:19 42.21156 -0.24785 29487 ft 384 kts 118°
2026-04-25 12:19 42.19571 -0.20487 28975 ft 380 kts 118°
2026-04-25 12:19 42.18397 -0.17310 28635 ft 377 kts 117°
2026-04-25 12:20 42.17231 -0.14157 28252 ft 375 kts 117°
2026-04-25 12:20 42.16072 -0.11025 27888 ft 373 kts 117°
2026-04-25 12:20 42.14917 -0.07908 27513 ft 371 kts 117°
2026-04-25 12:20 42.13767 -0.04807 27148 ft 369 kts 117°
2026-04-25 12:21 42.12624 -0.01727 26784 ft 367 kts 117°
2026-04-25 12:21 42.11485 0.01340 26416 ft 365 kts 117°
2026-04-25 12:21 42.10349 0.04395 26057 ft 364 kts 118°
2026-04-25 12:21 42.09216 0.07440 25698 ft 363 kts 117°
2026-04-25 12:22 42.08087 0.10471 25342 ft 362 kts 117°
2026-04-25 12:22 42.06958 0.13497 24990 ft 361 kts 117°
2026-04-25 12:22 42.05831 0.16514 24634 ft 360 kts 117°
2026-04-25 12:22 42.04703 0.19528 24263 ft 360 kts 117°
2026-04-25 12:23 42.03591 0.22494 23908 ft 360 kts 117°
2026-04-25 12:23 42.02463 0.25502 23505 ft 360 kts 117°
2026-04-25 12:23 42.01337 0.28507 23113 ft 359 kts 117°
2026-04-25 12:23 42.00214 0.31498 22728 ft 358 kts 117°
2026-04-25 12:24 41.99093 0.34478 22363 ft 356 kts 118°
2026-04-25 12:24 41.97979 0.37439 22003 ft 354 kts 117°
2026-04-25 12:24 41.97001 0.40472 21642 ft 353 kts 110°
2026-04-25 12:24 41.96203 0.43572 21305 ft 351 kts 109°
2026-04-25 12:25 41.95453 0.46680 20959 ft 349 kts 108°
2026-04-25 12:25 41.94706 0.49775 20611 ft 347 kts 109°
2026-04-25 12:25 41.93951 0.52850 20264 ft 346 kts 109°
2026-04-25 12:25 41.93187 0.55909 19919 ft 345 kts 109°
2026-04-25 12:26 41.92416 0.58950 19580 ft 343 kts 109°
2026-04-25 12:26 41.91641 0.61980 19238 ft 343 kts 110°
2026-04-25 12:26 41.90866 0.64995 18889 ft 342 kts 110°
2026-04-25 12:26 41.90089 0.68006 18545 ft 341 kts 109°
2026-04-25 12:27 41.89313 0.71005 18165 ft 340 kts 110°
2026-04-25 12:27 41.88538 0.73996 17781 ft 339 kts 110°
2026-04-25 12:27 41.87766 0.76972 17409 ft 337 kts 109°
2026-04-25 12:27 41.86996 0.79935 17055 ft 335 kts 109°
2026-04-25 12:28 41.86229 0.82885 16699 ft 334 kts 109°
2026-04-25 12:28 41.85464 0.85818 16351 ft 333 kts 109°
2026-04-25 12:28 41.84702 0.88738 16008 ft 331 kts 109°
2026-04-25 12:28 41.83942 0.91649 15656 ft 330 kts 109°
2026-04-25 12:29 41.83184 0.94548 15321 ft 329 kts 109°
2026-04-25 12:29 41.82428 0.97440 14979 ft 328 kts 109°
2026-04-25 12:29 41.81672 1.00326 14639 ft 328 kts 109°
2026-04-25 12:29 41.80916 1.03211 14291 ft 328 kts 108°
2026-04-25 12:30 41.80157 1.06099 13932 ft 329 kts 109°
2026-04-25 12:30 41.79398 1.08983 13550 ft 328 kts 108°
2026-04-25 12:30 41.78570 1.11825 13173 ft 328 kts 117°
2026-04-25 12:30 41.77059 1.14087 12805 ft 329 kts 144°
2026-04-25 12:31 41.75190 1.15751 12493 ft 326 kts 144°
2026-04-25 12:31 41.73338 1.17501 12131 ft 325 kts 143°
2026-04-25 12:31 41.71506 1.19261 11783 ft 324 kts 143°
2026-04-25 12:31 41.69680 1.21019 11447 ft 322 kts 143°
2026-04-25 12:32 41.67890 1.22740 11097 ft 312 kts 143°
2026-04-25 12:32 41.66148 1.24411 10780 ft 304 kts 143°
2026-04-25 12:32 41.64449 1.26039 10478 ft 299 kts 143°
2026-04-25 12:32 41.62761 1.27654 10237 ft 297 kts 143°
2026-04-25 12:33 41.61097 1.29245 10081 ft 292 kts 143°
2026-04-25 12:33 41.59451 1.30818 9809 ft 289 kts 143°
2026-04-25 12:33 41.57828 1.32367 9560 ft 285 kts 143°
2026-04-25 12:33 41.56224 1.33896 9326 ft 282 kts 143°
2026-04-25 12:34 41.54639 1.35408 9081 ft 278 kts 142°
2026-04-25 12:34 41.53075 1.36898 8852 ft 274 kts 143°
2026-04-25 12:34 41.51530 1.38370 8622 ft 272 kts 143°
2026-04-25 12:34 41.51012 1.38863 8554 ft 271 kts 142°
2026-04-25 12:35 41.48487 1.41269 8185 ft 266 kts 142°
2026-04-25 12:35 41.46988 1.42697 7965 ft 264 kts 143°
2026-04-25 12:35 41.45499 1.44111 7757 ft 262 kts 143°
2026-04-25 12:35 41.44014 1.45522 7544 ft 262 kts 142°
2026-04-25 12:36 41.42530 1.46931 7316 ft 261 kts 142°
2026-04-25 12:36 41.41049 1.48337 7105 ft 262 kts 142°
2026-04-25 12:36 41.39567 1.49740 6888 ft 261 kts 142°
2026-04-25 12:36 41.38101 1.51131 6669 ft 257 kts 142°
2026-04-25 12:37 41.36656 1.52508 6446 ft 254 kts 142°
2026-04-25 12:37 41.35197 1.53804 6194 ft 253 kts 152°
2026-04-25 12:37 41.33458 1.54128 5874 ft 260 kts 191°
2026-04-25 12:37 41.31805 1.53182 5650 ft 259 kts 205°
2026-04-25 12:38 41.30189 1.52124 5349 ft 258 kts 202°
2026-04-25 12:38 41.28569 1.51113 5117 ft 257 kts 202°
2026-04-25 12:38 41.26962 1.50113 4969 ft 249 kts 202°
2026-04-25 12:38 41.25440 1.49160 4872 ft 236 kts 202°
2026-04-25 12:39 41.24043 1.48117 4792 ft 227 kts 218°
2026-04-25 12:39 41.23246 1.46382 4577 ft 225 kts 256°
2026-04-25 12:39 41.22976 1.44348 4287 ft 223 kts 253°
2026-04-25 12:39 41.22233 1.42578 4030 ft 220 kts 229°
2026-04-25 12:40 41.21388 1.40878 3724 ft 223 kts 248°
2026-04-25 12:40 41.21094 1.38881 3462 ft 218 kts 263°
2026-04-25 12:40 41.20748 1.36940 3141 ft 216 kts 241°
2026-04-25 12:40 41.19941 1.35295 2869 ft 213 kts 237°
2026-04-25 12:41 41.19450 1.33455 2589 ft 210 kts 259°
2026-04-25 12:41 41.19141 1.31580 2316 ft 207 kts 246°
2026-04-25 12:41 41.18498 1.29916 2082 ft 200 kts 243°
2026-04-25 12:41 41.18088 1.28193 1817 ft 190 kts 257°
2026-04-25 12:42 41.17662 1.26587 1538 ft 179 kts 240°
2026-04-25 12:42 41.17462 1.26103 1476 ft 175 kts 240°
2026-04-25 12:42 41.16822 1.23779 1111 ft 150 kts 245°
2026-04-25 12:42 41.16424 1.22512 922 ft 148 kts 245°
2026-04-25 12:43 41.16056 1.21248 752 ft 148 kts 247°
2026-04-25 12:43 41.15692 1.19943 565 ft 153 kts 246°
2026-04-25 12:43 41.14930 1.17383 240 ft 130 kts 250°
2026-04-25 12:44 41.14682 1.16530 239 ft 68 kts 249°
2026-04-25 12:44 41.14565 1.16120 238 ft 35 kts 249°
2026-04-25 12:44 41.14562 1.15890 237 ft 9 kts 337°
2026-04-25 12:45 41.14619 1.15860 238 ft 8 kts 339°
2026-04-25 12:45 41.14651 1.15815 238 ft 7 kts 259°
2026-04-25 12:45 41.14617 1.15693 238 ft 5 kts 249°
2026-04-25 12:46 41.14620 1.15651 238 ft 5 kts 304°
2026-04-25 12:46 41.14650 1.15627 238 ft 5 kts 337°
2026-04-25 12:46 41.14675 1.15615 238 ft 2 kts 340°
2026-04-25 12:46 41.14685 1.15611 238 ft 1 kts 342°